GW1094 Weather Reports


Display with metric or nautical units.
time (UTC)temp
F
wind
direction
speed
MPH
gust
MPH
rain 1hr
in
rain 24hr
in
rain mn
in
humidity
%
barometer
mb
20260507164926 47 131 0.0 0.0 0.00 0.00 0.00 77 4098.3
20260507164423 46 131 0.0 0.0 0.00 0.00 0.00 77 4098.7
20260507163920 47 136 0.0 0.0 0.00 0.00 0.00 78 4098.7
20260507163418 47 156 0.0 0.0 0.00 0.00 0.00 78 4098.7
20260507162914 46 156 0.0 0.0 0.00 0.00 0.00 79 4098.7
20260507162410 45 159 0.0 0.0 0.00 0.00 0.00 80 4098.7
20260507161908 45 246 0.0 1.0 0.00 0.00 0.00 78 4098.7
20260507161403 44 238 0.0 1.0 0.00 0.00 0.00 80 4098.7
20260507160900 44 238 0.0 1.0 0.00 0.00 0.00 82 4098.7
20260507160356 44 247 0.0 1.0 0.00 0.00 0.00 80 4098.7
20260507155852 44 253 1.0 1.0 0.00 0.00 0.00 80 4098.7
20260507155348 44 241 1.0 1.0 0.00 0.00 0.00 80 4099.0
20260507154845 44 240 0.0 0.0 0.00 0.00 0.00 78 4098.7
20260507154342 45 239 0.0 0.0 0.00 0.00 0.00 78 4098.7
20260507153839 45 240 1.0 1.0 0.00 0.00 0.00 78 4098.7
20260507153336 45 237 0.0 0.0 0.00 0.00 0.00 79 4099.0
20260507152832 45 237 0.0 0.0 0.00 0.00 0.00 80 4098.7
20260507152329 45 235 0.0 0.0 0.00 0.00 0.00 81 4098.7
20260507151825 45 236 0.0 0.0 0.00 0.00 0.00 81 4098.7
20260507151321 45 236 0.0 1.0 0.00 0.00 0.00 80 4099.0
20260507150818 44 236 0.0 0.0 0.00 0.00 0.00 82 4099.0
20260507150315 44 237 0.0 1.0 0.00 0.00 0.00 83 4098.7
20260507145811 43 237 0.0 0.0 0.00 0.00 0.00 83 4098.7
20260507145308 43 238 0.0 0.0 0.00 0.00 0.00 84 4098.7
20260507144805 43 229 0.0 0.0 0.00 0.00 0.00 84 4098.7
20260507144302 42 229 0.0 0.0 0.00 0.00 0.00 83 4098.7
20260507143758 42 229 0.0 0.0 0.00 0.00 0.00 86 4098.7
20260507143256 41 229 0.0 0.0 0.00 0.00 0.00 86 4098.7
20260507142751 41 230 1.0 1.0 0.00 0.00 0.00 86 4099.0
20260507142248 41 229 1.0 1.0 0.00 0.00 0.00 86 4098.7
20260507141745 41 230 1.0 2.0 0.00 0.00 0.00 86 4098.7
20260507141242 41 232 3.0 3.0 0.00 0.00 0.00 86 4099.0
20260507140738 41 233 2.0 2.0 0.00 0.00 0.00 85 4099.0
20260507140236 41 233 2.0 2.0 0.00 0.00 0.00 85 4099.0
20260507135732 40 236 3.0 5.0 0.00 0.00 0.00 88 4099.0
20260507135230 40 239 4.0 5.0 0.00 0.00 0.00 86 4099.0
20260507134726 40 238 5.0 5.0 0.00 0.00 0.00 87 4099.0
20260507134222 40 240 4.0 5.0 0.00 0.00 0.00 88 4098.7
20260507133718 40 246 5.0 6.0 0.00 0.00 0.00 88 4099.0
20260507133215 40 236 4.0 5.0 0.00 0.00 0.00 89 4099.0
20260507132713 40 232 4.0 5.0 0.00 0.00 0.00 90 4099.0
20260507132209 39 233 3.0 3.0 0.00 0.00 0.00 91 4098.7
20260507131706 39 224 3.0 3.0 0.00 0.00 0.00 90 4099.0
20260507131204 39 215 3.0 3.0 0.00 0.00 0.00 89 4099.0
20260507130700 39 222 4.0 5.0 0.00 0.00 0.00 90 4099.0
20260507130158 38 214 5.0 5.0 0.00 0.00 0.00 90 4099.0
20260507125656 38 219 5.0 5.0 0.00 0.00 0.00 89 4098.7
20260507125154 38 220 4.0 5.0 0.00 0.00 0.00 92 4098.7
20260507124649 38 222 5.0 6.0 0.00 0.00 0.00 92 4098.7
20260507124147 37 208 4.0 5.0 0.00 0.00 0.00 93 4099.0
20260507123646 37 211 5.0 5.0 0.00 0.00 0.00 93 4099.0
20260507123142 37 208 5.0 6.0 0.00 0.00 0.00 95 4099.0
20260507122637 37 209 5.0 5.0 0.00 0.00 0.00 96 4099.0
20260507122133 37 213 5.0 6.0 0.00 0.00 0.00 97 4098.7
20260507121630 37 225 5.0 6.0 0.00 0.00 0.00 97 4098.7
20260507121126 37 217 6.0 6.0 0.00 0.00 0.00 97 4098.7
20260507120622 37 222 6.0 7.0 0.00 0.00 0.00 97 4098.7
20260507120119 36 214 6.0 7.0 0.00 0.00 0.00 98 4098.7
20260507115615 36 217 6.0 7.0 0.00 0.00 0.00 99 4098.7
20260507115111 36 207 5.0 5.0 0.00 0.00 0.00 99 4098.7
20260507114607 36 213 5.0 5.0 0.00 0.00 0.00 99 4098.7
20260507114104 36 202 3.0 3.0 0.00 0.00 0.00 99 4098.7
20260507113601 36 208 5.0 5.0 0.00 0.00 0.00 98 4098.7
20260507113059 36 209 5.0 6.0 0.00 0.00 0.00 98 4098.3
20260507112557 35 214 5.0 6.0 0.00 0.00 0.00 99 4098.7
20260507112053 32 206 4.0 5.0 0.00 0.00 0.00 99 4098.7
20260507111550 31 93 0.0 0.0 0.00 0.00 0.00 99 4098.7
20260507111047 30 93 0.0 0.0 0.00 0.00 0.00 98 4098.3
20260507110543 30 93 0.0 0.0 0.00 0.00 0.00 98 4098.3
20260507110040 30 93 0.0 0.0 0.00 0.00 0.00 97 4098.3
20260507105537 30 93 0.0 0.0 0.00 0.00 0.00 97 4098.3
20260507105032 29 93 0.0 0.0 0.00 0.00 0.00 97 4098.3
20260507104530 29 93 0.0 0.0 0.00 0.00 0.00 97 4098.3
20260507104026 29 93 0.0 0.0 0.00 0.00 0.00 97 4098.3
20260507103523 29 93 0.0 0.0 0.00 0.00 0.00 96 4098.0
20260507103019 29 93 0.0 0.0 0.00 0.00 0.00 96 4098.3
20260507102516 29 93 0.0 0.0 0.00 0.00 0.00 97 4098.3
20260507102012 29 93 0.0 0.0 0.00 0.00 0.00 97 4098.3
20260507101507 29 93 0.0 0.0 0.00 0.00 0.00 96 4098.3
20260507101004 29 93 0.0 0.0 0.00 0.00 0.00 97 4098.3
20260507100502 29 93 0.0 0.0 0.00 0.00 0.00 96 4098.3
20260507095959 29 93 0.0 0.0 0.00 0.00 0.00 96 4098.3
20260507095457 29 93 0.0 0.0 0.00 0.00 0.00 96 4098.3
20260507094954 30 93 0.0 0.0 0.00 0.00 0.00 96 4098.3
20260507094450 29 93 0.0 0.0 0.00 0.00 0.00 97 4098.3
20260507093947 29 93 0.0 0.0 0.00 0.00 0.00 98 4098.3
20260507093445 29 93 0.0 0.0 0.00 0.00 0.00 99 4098.3
20260507092943 29 93 0.0 0.0 0.00 0.00 0.00 98 4098.3
20260507092439 30 94 0.0 0.0 0.00 0.00 0.00 98 4098.7
20260507091936 30 93 0.0 0.0 0.00 0.00 0.00 99 4098.7
20260507091432 30 93 0.0 0.0 0.00 0.00 0.00 98 4098.3
20260507090928 30 93 0.0 0.0 0.00 0.00 0.00 99 4098.7
20260507090424 31 93 0.0 0.0 0.00 0.00 0.00 98 4098.7
20260507085921 31 94 0.0 0.0 0.00 0.00 0.00 99 4098.7
20260507085418 31 94 0.0 0.0 0.00 0.00 0.00 99 4098.7
20260507084915 31 94 0.0 0.0 0.00 0.00 0.00 99 4098.7
20260507084412 31 94 0.0 0.0 0.00 0.00 0.00 99 4098.7
20260507083909 31 93 0.0 0.0 0.00 0.00 0.00 99 4098.7
20260507083405 31 93 0.0 0.0 0.00 0.00 0.00 99 4098.7
20260507082902 30 93 0.0 0.0 0.00 0.00 0.00 99 4098.7
20260507082357 30 93 0.0 0.0 0.00 0.00 0.00 99 4098.7
20260507081855 30 93 0.0 0.0 0.00 0.00 0.00 99 4098.7
20260507081351 30 93 0.0 0.0 0.00 0.00 0.00 99 4099.0
20260507080848 30 93 0.0 0.0 0.00 0.00 0.00 99 4099.0
20260507080344 30 93 0.0 0.0 0.00 0.00 0.00 99 4099.0
20260507075839 30 93 0.0 0.0 0.00 0.00 0.00 99 4098.7
20260507075335 30 93 0.0 0.0 0.00 0.00 0.00 99 4098.7
20260507074832 30 93 0.0 0.0 0.00 0.00 0.00 99 4098.7
20260507074330 30 93 0.0 0.0 0.00 0.00 0.00 99 4099.0
20260507073827 31 93 0.0 0.0 0.00 0.00 0.00 99 4099.0
20260507073323 31 92 0.0 0.0 0.00 0.00 0.00 99 4099.0
20260507072820 30 92 0.0 0.0 0.00 0.00 0.00 99 4099.4
20260507072318 30 92 0.0 0.0 0.00 0.00 0.00 99 4099.0
20260507071815 31 92 0.0 0.0 0.00 0.00 0.00 99 4099.0
20260507071312 30 92 0.0 0.0 0.00 0.00 0.00 99 4099.0
20260507070808 30 92 0.0 0.0 0.00 0.00 0.00 99 4099.0
20260507070306 30 92 0.0 0.0 0.00 0.00 0.00 99 4099.0
20260507065802 30 92 0.0 0.0 0.00 0.00 0.00 99 4099.0
20260507065259 30 92 0.0 0.0 0.00 0.00 0.00 99 4099.4
20260507064756 31 93 0.0 0.0 0.00 0.00 0.00 99 4099.4
20260507064255 31 93 0.0 0.0 0.00 0.00 0.00 99 4099.4
20260507063753 31 93 0.0 0.0 0.00 0.00 0.00 99 4099.4
20260507063249 31 93 0.0 0.0 0.00 0.00 0.00 98 4099.4
20260507062746 31 93 0.0 0.0 0.00 0.00 0.00 98 4099.4
20260507062243 32 93 0.0 0.0 0.00 0.00 0.00 98 4099.0
20260507061741 32 93 0.0 0.0 0.00 0.00 0.00 98 4099.4
20260507061239 32 93 0.0 0.0 0.00 0.00 0.00 98 4099.4
20260507060737 32 93 0.0 0.0 0.00 0.00 0.00 98 4099.4
20260507060233 32 93 0.0 0.0 0.00 0.00 0.00 97 4099.4
20260507055729 32 93 0.0 0.0 0.00 0.00 0.00 97 4099.4
20260507055225 33 93 0.0 0.0 0.00 0.00 0.00 97 4099.4
20260507054721 33 93 0.0 0.0 0.00 0.00 0.00 97 4099.4
20260507054218 33 93 0.0 0.0 0.00 0.00 0.00 96 4099.4
20260507053716 34 93 0.0 0.0 0.00 0.00 0.00 96 4099.4
20260507053213 34 93 0.0 0.0 0.00 0.00 0.00 96 4099.4
20260507052712 34 93 0.0 0.0 0.00 0.00 0.00 95 4099.4
20260507052208 35 93 0.0 0.0 0.00 0.00 0.00 95 4099.4
20260507051706 35 93 0.0 0.0 0.00 0.00 0.00 95 4099.4
20260507051202 36 93 0.0 0.0 0.00 0.00 0.00 94 4099.7
20260507050659 36 93 0.0 0.0 0.00 0.00 0.00 93 4099.7
20260507050156 37 93 0.0 0.0 0.00 0.00 0.00 93 4099.7
20260507045653 37 92 0.0 0.0 0.00 0.00 0.00 92 4099.7
20260507045149 38 93 0.0 0.0 0.00 0.00 0.00 91 4099.7
20260507044646 38 93 0.0 1.0 0.00 0.00 0.00 92 4099.7
20260507044143 38 92 0.0 1.0 0.00 0.00 0.00 92 4099.4
20260507043639 38 93 0.0 1.0 0.00 0.00 0.00 94 4099.7
20260507043136 38 93 0.0 0.0 0.00 0.00 0.00 94 4099.7
20260507042633 38 93 0.0 1.0 0.00 0.00 0.00 94 4099.7
20260507042127 38 94 0.0 0.0 0.00 0.00 0.00 94 4099.7
20260507041625 39 94 0.0 0.0 0.00 0.00 0.00 94 4099.7
20260507041121 39 94 0.0 0.0 0.00 0.00 0.00 93 4099.7
20260507040618 39 94 0.0 0.0 0.00 0.00 0.00 93 4099.7
20260507040115 39 93 0.0 0.0 0.00 0.00 0.00 93 4099.7
20260507035611 39 94 0.0 0.0 0.00 0.00 0.00 92 4099.7
20260507035107 39 94 0.0 0.0 0.00 0.00 0.00 92 4099.7
20260507034604 39 94 0.0 0.0 0.00 0.00 0.00 91 4100.0
20260507034102 39 94 0.0 0.0 0.00 0.00 0.00 91 4100.0
20260507033600 39 95 0.0 0.0 0.00 0.00 0.00 90 4099.7
20260507033057 39 95 0.0 1.0 0.00 0.00 0.00 90 4099.7
20260507032554 39 95 0.0 0.0 0.00 0.00 0.00 89 4099.7
20260507032050 39 97 0.0 0.0 0.00 0.00 0.00 89 4099.7
20260507031546 39 98 0.0 0.0 0.00 0.00 0.00 89 4099.7
20260507031043 39 98 2.0 2.0 0.00 0.00 0.00 89 4099.7
20260507030540 39 111 0.0 0.0 0.00 0.00 0.00 88 4099.7
20260507030038 39 112 0.0 0.0 0.00 0.00 0.00 87 4099.7
20260507025535 39 112 0.0 0.0 0.00 0.00 0.00 86 4099.7
20260507025032 39 113 0.0 0.0 0.00 0.00 0.00 87 4099.7
20260507024530 39 119 1.0 2.0 0.00 0.00 0.00 89 4099.7
20260507024026 39 125 0.0 0.0 0.00 0.00 0.00 90 4099.7
20260507023522 39 125 0.0 0.0 0.00 0.00 0.00 89 4100.0
20260507023020 39 125 0.0 0.0 0.00 0.00 0.00 89 4099.7
20260507022516 40 125 0.0 0.0 0.00 0.00 0.00 89 4099.7
20260507022012 40 125 0.0 0.0 0.00 0.00 0.00 87 4099.7
20260507021508 40 126 0.0 0.0 0.00 0.00 0.00 86 4099.7
20260507021005 40 234 0.0 0.0 0.00 0.00 0.00 86 4099.7
20260507020502 40 234 1.0 1.0 0.00 0.00 0.00 84 4099.4
20260507015959 40 238 0.0 1.0 0.00 0.00 0.00 85 4099.7
20260507015458 40 238 0.0 0.0 0.00 0.00 0.00 83 4099.7
20260507014955 40 238 0.0 0.0 0.00 0.00 0.00 82 4099.7
20260507014451 40 239 0.0 0.0 0.00 0.00 0.00 83 4099.7
20260507013946 40 239 0.0 0.0 0.00 0.00 0.00 82 4099.7
20260507013444 40 235 0.0 0.0 0.00 0.00 0.00 82 4099.4
20260507012941 40 235 0.0 0.0 0.00 0.00 0.00 82 4099.4
20260507012438 40 237 0.0 0.0 0.00 0.00 0.00 82 4099.7
20260507011934 40 237 0.0 0.0 0.00 0.00 0.00 83 4099.4
20260507011432 40 237 0.0 0.0 0.00 0.00 0.00 84 4099.4
20260507010932 40 238 0.0 0.0 0.00 0.00 0.00 83 4099.4
20260507010427 40 238 0.0 0.0 0.00 0.00 0.00 84 4099.4
20260507005924 40 242 0.0 0.0 0.00 0.00 0.00 85 4099.4
20260507005421 40 305 0.0 0.0 0.00 0.00 0.00 84 4099.4
20260507004917 40 308 0.0 0.0 0.00 0.00 0.00 84 4099.4
20260507004414 40 307 0.0 0.0 0.00 0.00 0.00 83 4099.4
20260507003912 40 308 0.0 0.0 0.00 0.00 0.00 82 4099.4
20260507003407 41 308 0.0 0.0 0.00 0.00 0.00 84 4099.4
20260507002902 41 307 0.0 0.0 0.00 0.00 0.00 82 4099.4
20260507002359 41 307 0.0 0.0 0.00 0.00 0.00 81 4099.4
20260507001856 41 307 0.0 0.0 0.00 0.00 0.00 82 4099.4
20260507001353 41 307 0.0 0.0 0.00 0.00 0.00 84 4099.0
20260507000850 41 307 0.0 0.0 0.00 0.00 0.00 84 4099.4
20260507000345 41 307 0.0 0.0 0.00 0.00 0.00 83 4099.0
20260506235842 41 307 0.0 0.0 0.00 0.00 0.00 83 4099.4
20260506235339 41 310 0.0 1.0 0.00 0.00 0.00 82 4099.0
20260506234834 41 44 0.0 1.0 0.00 0.00 0.00 80 4099.0
20260506234332 41 43 0.0 0.0 0.00 0.00 0.00 81 4099.4
20260506233830 41 43 0.0 0.0 0.00 0.00 0.00 81 4099.4
20260506233325 41 43 0.0 0.0 0.00 0.00 0.00 82 4099.4
20260506232823 41 43 0.0 0.0 0.00 0.00 0.00 82 4099.4
20260506232318 41 43 0.0 0.0 0.00 0.00 0.00 82 4099.4
20260506231815 41 44 0.0 1.0 0.00 0.00 0.00 80 4099.4
20260506231313 41 44 0.0 0.0 0.00 0.00 0.00 81 4099.0
20260506230810 41 44 0.0 0.0 0.00 0.00 0.00 82 4099.0
20260506230307 41 44 0.0 0.0 0.00 0.00 0.00 81 4099.4
20260506225803 41 44 0.0 0.0 0.00 0.00 0.00 81 4099.4
20260506225300 41 44 1.0 1.0 0.00 0.00 0.00 80 4099.4
20260506224756 42 44 1.0 1.0 0.00 0.00 0.00 80 4099.4
20260506224254 42 44 0.0 0.0 0.00 0.00 0.00 80 4099.4
20260506223749 42 44 0.0 0.0 0.00 0.00 0.00 80 4099.4
20260506223240 42 45 0.0 0.0 0.00 0.00 0.00 79 4099.4
20260506222737 42 44 1.0 1.0 0.00 0.00 0.00 80 4099.4
20260506222232 42 45 0.0 1.0 0.00 0.00 0.00 79 4099.4
20260506221731 42 37 0.0 0.0 0.00 0.00 0.00 78 4099.4
20260506221229 42 5 0.0 1.0 0.00 0.00 0.00 78 4099.4
20260506220725 42 348 0.0 0.0 0.00 0.00 0.00 77 4099.4
20260506220220 42 344 0.0 0.0 0.00 0.00 0.00 76 4099.4
20260506215717 42 342 2.0 2.0 0.00 0.00 0.00 76 4099.4
20260506215213 42 322 0.0 1.0 0.00 0.00 0.00 76 4099.4
20260506214709 42 53 0.0 0.0 0.00 0.00 0.00 75 4099.4
20260506214207 43 44 1.0 2.0 0.00 0.00 0.00 77 4099.0
20260506213705 42 16 0.0 0.0 0.00 0.00 0.00 75 4099.4
20260506213202 43 24 0.0 1.0 0.00 0.00 0.00 73 4099.4
20260506212659 43 15 1.0 2.0 0.00 0.00 0.00 75 4099.0
20260506212154 43 337 1.0 1.0 0.00 0.00 0.00 74 4099.0
20260506211650 43 334 0.0 0.0 0.00 0.00 0.00 75 4099.0
20260506211147 43 271 1.0 2.0 0.00 0.00 0.00 73 4099.0
20260506210643 43 349 2.0 2.0 0.00 0.00 0.00 74 4099.0
20260506210140 43 25 0.0 1.0 0.00 0.00 0.00 74 4099.0
20260506205638 43 85 0.0 1.0 0.00 0.00 0.00 75 4099.4
20260506205132 44 76 1.0 1.0 0.00 0.00 0.00 76 4099.0
20260506204630 44 60 1.0 1.0 0.00 0.00 0.00 75 4099.4
20260506204127 43 47 1.0 1.0 0.00 0.00 0.00 75 4099.4
20260506203625 43 24 1.0 1.0 0.00 0.00 0.00 76 4099.4
20260506203121 43 19 0.0 1.0 0.00 0.00 0.00 76 4099.0
20260506202620 43 328 1.0 1.0 0.00 0.00 0.00 73 4099.0
20260506202115 43 21 1.0 1.0 0.00 0.00 0.00 74 4099.4
20260506201613 43 321 3.0 5.0 0.00 0.00 0.00 73 4099.4
20260506201109 44 57 0.0 1.0 0.00 0.00 0.00 75 4099.4
20260506200606 44 59 0.0 1.0 0.00 0.00 0.00 73 4099.4
20260506195559 44 357 0.0 1.0 0.00 0.00 0.00 76 4099.4
20260506195055 45 70 0.0 1.0 0.00 0.00 0.00 74 4099.4
20260506194553 45 15 2.0 3.0 0.00 0.00 0.00 74 4099.0
20260506194049 45 278 0.0 1.0 0.00 0.00 0.00 74 4099.0
20260506193547 45 73 2.0 2.0 0.00 0.00 0.00 72 4099.0
20260506193044 46 279 1.0 1.0 0.00 0.00 0.00 72 4099.0
20260506192541 46 191 2.0 3.0 0.00 0.00 0.00 74 4099.0
20260506192037 46 231 2.0 3.0 0.00 0.00 0.00 72 4099.0
20260506191534 46 29 1.0 1.0 0.00 0.00 0.00 73 4099.0
20260506191030 44 189 0.0 1.0 0.00 0.00 0.00 75 4099.0
20260506190527 44 243 1.0 2.0 0.00 0.00 0.00 72 4099.0
20260506190024 44 265 0.0 1.0 0.00 0.00 0.00 73 4099.0
20260506185521 44 73 0.0 2.0 0.00 0.00 0.00 73 4099.0
20260506185018 45 51 2.0 3.0 0.00 0.00 0.00 72 4099.0
20260506184515 45 74 1.0 2.0 0.00 0.00 0.00 73 4099.0
20260506184012 45 346 1.0 1.0 0.00 0.00 0.00 69 4099.0
20260506183508 47 48 1.0 2.0 0.00 0.00 0.00 69 4099.0
20260506183005 46 158 0.0 1.0 0.00 0.00 0.00 70 4099.0
20260506182502 47 339 1.0 2.0 0.00 0.00 0.00 67 4099.0
20260506181959 46 44 1.0 1.0 0.00 0.00 0.00 72 4099.0
20260506181457 45 165 1.0 1.0 0.00 0.00 0.00 71 4099.0
20260506180953 46 346 2.0 3.0 0.00 0.00 0.00 71 4099.0
20260506180450 47 55 1.0 1.0 0.00 0.00 0.00 69 4099.0
20260506175947 47 50 3.0 3.0 0.00 0.00 0.00 69 4099.0
20260506175443 48 2 2.0 2.0 0.00 0.00 0.00 69 4099.4
20260506174940 48 131 1.0 2.0 0.00 0.00 0.00 68 4099.4
20260506174438 46 83 1.0 2.0 0.00 0.00 0.00 73 4099.4
20260506173934 46 73 1.0 2.0 0.00 0.00 0.00 71 4099.0
20260506173432 45 10 1.0 1.0 0.00 0.00 0.00 73 4099.4
20260506172928 45 83 1.0 1.0 0.00 0.00 0.00 74 4099.0
20260506172425 44 216 1.0 1.0 0.00 0.00 0.00 74 4099.0
20260506171917 44 83 1.0 2.0 0.00 0.00 0.00 73 4099.4
20260506171414 45 80 0.0 1.0 0.00 0.00 0.00 73 4099.4
20260506170912 44 45 2.0 2.0 0.00 0.00 0.00 72 4099.4
20260506170407 43 338 0.0 1.0 0.00 0.00 0.00 75 4099.4
20260506165901 44 53 1.0 1.0 0.00 0.00 0.00 75 4099.4
20260506165359 46 33 1.0 2.0 0.00 0.00 0.00 73 4099.4